YV188E KVUJ-KVUJ

Flight info

Callsign YV188E
Flight time 0h 17m
Altitude 2500
Route TGL
Aircraft C152/L-S/C

Departure

Time 2026-05-07 17:01
Airport Stanly County Airport (KVUJ)

Arrival

Time 2026-05-07 17:18
Airport Stanly County Airport (KVUJ)
Time Latitude Longitude Altitude Speed Heading
2026-05-07 16:45 35.41224 -80.15136 585 ft 0 kts 308°
2026-05-07 16:53 35.41224 -80.15137 585 ft 1 kts 307°
2026-05-07 16:53 35.41228 -80.15159 586 ft 3 kts 206°
2026-05-07 16:54 35.41186 -80.15198 588 ft 2 kts 217°
2026-05-07 16:54 35.41204 -80.15206 588 ft 15 kts 63°
2026-05-07 16:54 35.41315 -80.15115 583 ft 9 kts 348°
2026-05-07 16:54 35.41384 -80.15092 581 ft 15 kts 37°
2026-05-07 16:55 35.41491 -80.14992 575 ft 22 kts 36°
2026-05-07 16:55 35.41635 -80.14861 566 ft 26 kts 39°
2026-05-07 16:55 35.41761 -80.14743 560 ft 22 kts 36°
2026-05-07 16:55 35.41880 -80.14630 558 ft 21 kts 39°
2026-05-07 16:56 35.41985 -80.14532 561 ft 12 kts 37°
2026-05-07 16:56 35.42052 -80.14471 564 ft 9 kts 33°
2026-05-07 16:56 35.42055 -80.14469 564 ft 0 kts 28°
2026-05-07 16:57 35.42072 -80.14463 564 ft 5 kts 353°
2026-05-07 16:57 35.42082 -80.14467 565 ft 0 kts 331°
2026-05-07 16:58 35.42088 -80.14471 565 ft 4 kts 334°
2026-05-07 16:59 35.42127 -80.14526 567 ft 9 kts 303°
2026-05-07 16:59 35.42123 -80.14544 566 ft 0 kts 215°
2026-05-07 16:59 35.42061 -80.14600 564 ft 36 kts 215°
2026-05-07 16:59 35.41744 -80.14893 592 ft 68 kts 221°
2026-05-07 17:00 35.41374 -80.15249 734 ft 68 kts 220°
2026-05-07 17:00 35.40995 -80.15593 879 ft 68 kts 219°
2026-05-07 17:00 35.40566 -80.15986 979 ft 80 kts 220°
2026-05-07 17:00 35.40116 -80.16402 1160 ft 81 kts 220°
2026-05-07 17:01 35.39590 -80.16644 1314 ft 86 kts 182°
2026-05-07 17:01 35.39036 -80.16359 1472 ft 89 kts 133°
2026-05-07 17:01 35.38708 -80.15722 1637 ft 90 kts 104°
2026-05-07 17:01 35.38743 -80.14904 1660 ft 103 kts 68°
2026-05-07 17:02 35.39143 -80.14220 1666 ft 98 kts 41°
2026-05-07 17:02 35.39641 -80.13654 1673 ft 98 kts 40°
2026-05-07 17:02 35.40141 -80.13086 1686 ft 97 kts 40°
2026-05-07 17:02 35.40641 -80.12522 1699 ft 97 kts 40°
2026-05-07 17:03 35.41140 -80.11944 1638 ft 92 kts 41°
2026-05-07 17:03 35.41561 -80.11450 1624 ft 75 kts 41°
2026-05-07 17:03 35.41985 -80.11124 1526 ft 71 kts
2026-05-07 17:03 35.42448 -80.11250 1426 ft 68 kts 326°
2026-05-07 17:04 35.42793 -80.11659 1320 ft 68 kts 314°
2026-05-07 17:04 35.43113 -80.12084 1234 ft 67 kts 315°
2026-05-07 17:04 35.43387 -80.12549 1137 ft 68 kts 291°
2026-05-07 17:04 35.43374 -80.13135 1033 ft 72 kts 254°
2026-05-07 17:05 35.43077 -80.13629 938 ft 74 kts 222°
2026-05-07 17:05 35.42659 -80.14020 823 ft 75 kts 221°
2026-05-07 17:05 35.42248 -80.14419 687 ft 73 kts 219°
2026-05-07 17:05 35.41869 -80.14776 565 ft 59 kts 217°
2026-05-07 17:06 35.41589 -80.15035 579 ft 50 kts 219°
2026-05-07 17:06 35.41267 -80.15320 610 ft 62 kts 220°
2026-05-07 17:06 35.40913 -80.15653 692 ft 64 kts 220°
2026-05-07 17:06 35.40550 -80.15984 785 ft 64 kts 219°
2026-05-07 17:07 35.40157 -80.16317 867 ft 71 kts 218°
2026-05-07 17:07 35.39745 -80.16666 988 ft 71 kts 218°
2026-05-07 17:07 35.39328 -80.17006 1109 ft 72 kts 211°
2026-05-07 17:07 35.38827 -80.17065 1215 ft 77 kts 162°
2026-05-07 17:08 35.38437 -80.16623 1361 ft 78 kts 122°
2026-05-07 17:08 35.38207 -80.16036 1535 ft 77 kts 98°
2026-05-07 17:08 35.38316 -80.15414 1682 ft 78 kts 52°
2026-05-07 17:08 35.38750 -80.14888 1660 ft 93 kts 39°
2026-05-07 17:09 35.39250 -80.14353 1659 ft 96 kts 39°
2026-05-07 17:09 35.39756 -80.13815 1658 ft 97 kts 38°
2026-05-07 17:09 35.40277 -80.13287 1661 ft 97 kts 37°
2026-05-07 17:09 35.40812 -80.12762 1650 ft 98 kts 35°
2026-05-07 17:10 35.41352 -80.12256 1656 ft 94 kts 35°
2026-05-07 17:10 35.41820 -80.11809 1650 ft 75 kts 35°
2026-05-07 17:10 35.42215 -80.11434 1549 ft 71 kts 31°
2026-05-07 17:10 35.42675 -80.11339 1460 ft 67 kts 344°
2026-05-07 17:11 35.43048 -80.11668 1371 ft 68 kts 311°
2026-05-07 17:11 35.43336 -80.12122 1295 ft 67 kts 309°
2026-05-07 17:11 35.43544 -80.12597 1220 ft 62 kts 278°
2026-05-07 17:11 35.43424 -80.13116 1096 ft 66 kts 243°
2026-05-07 17:12 35.43123 -80.13558 996 ft 67 kts 227°
2026-05-07 17:12 35.42766 -80.13928 876 ft 68 kts 222°
2026-05-07 17:12 35.42393 -80.14284 704 ft 67 kts 222°
2026-05-07 17:12 35.42045 -80.14613 566 ft 55 kts 217°
2026-05-07 17:13 35.41780 -80.14858 564 ft 53 kts 217°
2026-05-07 17:13 35.41407 -80.15203 656 ft 72 kts 218°
2026-05-07 17:13 35.41008 -80.15562 837 ft 73 kts 218°
2026-05-07 17:13 35.40600 -80.15944 1021 ft 74 kts 219°
2026-05-07 17:14 35.40194 -80.16331 1209 ft 74 kts 219°
2026-05-07 17:14 35.39822 -80.16766 1385 ft 75 kts 244°
2026-05-07 17:14 35.39809 -80.17378 1553 ft 75 kts 300°
2026-05-07 17:14 35.40145 -80.17851 1702 ft 80 kts 316°
2026-05-07 17:15 35.40667 -80.18205 1774 ft 89 kts 353°
2026-05-07 17:15 35.41254 -80.18002 1802 ft 93 kts 35°
2026-05-07 17:15 35.41772 -80.17506 1788 ft 95 kts 37°
2026-05-07 17:15 35.42300 -80.17002 1736 ft 96 kts 37°
2026-05-07 17:16 35.42831 -80.16500 1695 ft 97 kts 36°
2026-05-07 17:16 35.43367 -80.16001 1666 ft 95 kts 37°
2026-05-07 17:16 35.43853 -80.15531 1640 ft 81 kts 38°
2026-05-07 17:16 35.44256 -80.15131 1570 ft 71 kts 37°
2026-05-07 17:17 35.44573 -80.14676 1448 ft 73 kts 69°
2026-05-07 17:17 35.44479 -80.14085 1311 ft 76 kts 136°
2026-05-07 17:17 35.44019 -80.13774 1205 ft 73 kts 158°
2026-05-07 17:17 35.43527 -80.13795 1078 ft 73 kts 210°
2026-05-07 17:18 35.43078 -80.14078 950 ft 72 kts 207°
2026-05-07 17:18 35.42625 -80.14381 796 ft 72 kts 212°
2026-05-07 17:18 35.42230 -80.14737 585 ft 67 kts 218°
2026-05-07 17:18 35.41924 -80.15020 569 ft 44 kts 218°
2026-05-07 17:19 35.41703 -80.15228 580 ft 35 kts 217°
2026-05-07 17:19 35.41538 -80.15381 589 ft 13 kts 217°
2026-05-07 17:19 35.41472 -80.15353 588 ft 9 kts 129°
2026-05-07 17:19 35.41457 -80.15330 588 ft 6 kts 127°
2026-05-07 17:20 35.41436 -80.15296 587 ft 0 kts 128°
2026-05-07 17:20 35.41404 -80.15246 586 ft 13 kts 124°
2026-05-07 17:20 35.41361 -80.15171 584 ft 7 kts 131°
2026-05-07 17:21 35.41314 -80.15100 582 ft 10 kts 129°
2026-05-07 17:21 35.41256 -80.15130 585 ft 10 kts 218°
2026-05-07 17:21 35.41201 -80.15180 587 ft 5 kts 179°
2026-05-07 17:21 35.41191 -80.15148 587 ft 4 kts 31°
2026-05-07 17:22 35.41204 -80.15155 587 ft 0 kts 308°